Weather History for Martha's Vineyard, MA

Change the Weather History Date:

Wednesday, February 8, 2012

  Actual Average Record
Temperature  
Mean Temperature 32 °F -  
Max Temperature 39 °F 36 °F 54 °F (2009)
Min Temperature 25 °F 20 °F 1 °F (1961)
Degree Days  
Heating Degree Days 33    
Moisture  
Dew Point 21 °F    
Average Humidity 59    
Maximum Humidity 73    
Minimum Humidity 47    
Precipitation  
Precipitation 0.00 in - - ()
Sea Level Pressure  
Sea Level Pressure 30.22 in    
Wind  
Wind Speed 7 mph (North)    
Max Wind Speed 10 mph    
Max Gust Speed -    
Visibility 10 miles    
Events      
Averages and records for this station are not official NWS values.
T = Trace of Precipitation, MM = Missing Value Source: NWS Daily Summary

Daily Weather History Graph

Daily Weather History Graph

Search for Another Location

Airport:

Trip Planner

Search our weather history database for the weather conditions in past years. The results will help you decide how hot, cold, wet, or windy it might be!

Date:

Astronomy

Feb. 08, 2012 Rise Set
Actual Time 6:46 AM EST 5:06 PM EST
Civil Twilight 6:18 AM EST 5:35 PM EST
Nautical Twilight 5:45 AM EST 6:08 PM EST
Astronomical Twilight 5:13 AM EST 6:40 PM EST
Moon 6:24 PM EST (2/8) 6:47 AM EST (2/8)
Length of Visible Light 11h 17m
Length of Day
10h 20m
Full, 99% of the Moon is Illuminated
Feb 8
Full
Feb 14
Last Quarter
Feb 21
New
Feb 29
First Quarter
Mar 8
Full

Hourly Weather History & Observations

Time (EST) Temp. Windchill Dew Point Humidity Pressure Visibility Wind Dir Wind Speed Gust Speed Precip Events Conditions
12:53 AM 34.0 °F 26.0 °F 19.9 °F 56% 30.22 in 10.0 mi North 10.4 mph - N/A   Clear
1:53 AM 33.1 °F 26.1 °F 19.0 °F 56% 30.25 in 10.0 mi North 8.1 mph - N/A   Clear
2:53 AM 32.0 °F 23.6 °F 17.1 °F 54% 30.25 in 10.0 mi North 10.4 mph - N/A   Clear
3:53 AM 30.0 °F 21.7 °F 12.0 °F 47% 30.25 in 10.0 mi North 9.2 mph - N/A   Clear
4:53 AM 28.9 °F 21.1 °F 12.0 °F 49% 30.27 in 10.0 mi North 8.1 mph - N/A   Clear
5:53 AM 28.0 °F 21.7 °F 12.9 °F 53% 30.28 in 10.0 mi North 5.8 mph - N/A   Clear
6:53 AM 25.0 °F 16.3 °F 14.0 °F 63% 30.29 in 10.0 mi North 8.1 mph - N/A   Clear
7:53 AM 30.0 °F 21.7 °F 17.1 °F 59% 30.30 in 10.0 mi North 9.2 mph - N/A   Clear
8:53 AM 32.0 °F 25.6 °F 17.1 °F 54% 30.32 in 10.0 mi North 6.9 mph - N/A   Clear
9:53 AM 34.0 °F 31.0 °F 19.0 °F 54% 30.32 in 10.0 mi Variable 3.5 mph - N/A   Clear
10:53 AM 36.0 °F - 19.9 °F 52% 30.30 in 10.0 mi Calm Calm - N/A   Clear
11:53 AM 37.0 °F 31.0 °F 21.9 °F 54% 30.26 in 10.0 mi SE 8.1 mph - N/A   Clear
12:53 PM 39.0 °F 32.8 °F 23.0 °F 53% 30.23 in 10.0 mi SE 9.2 mph - N/A   Clear
1:53 PM 39.0 °F 35.7 °F 24.1 °F 55% 30.22 in 10.0 mi South 4.6 mph - N/A   Clear
2:53 PM 37.9 °F 34.4 °F 23.0 °F 55% 30.20 in 10.0 mi SW 4.6 mph - N/A   Clear
3:53 PM 37.0 °F 32.4 °F 24.1 °F 59% 30.19 in 10.0 mi South 5.8 mph - N/A   Scattered Clouds
4:53 PM 36.0 °F - 25.0 °F 64% 30.19 in 10.0 mi Calm Calm - N/A   Overcast
5:53 PM 36.0 °F 33.3 °F 26.1 °F 67% 30.16 in 10.0 mi East 3.5 mph - N/A   Overcast
6:53 PM 36.0 °F - 27.0 °F 70% 30.16 in 10.0 mi Calm Calm - N/A   Overcast
7:53 PM 34.0 °F - 25.0 °F 70% 30.12 in 10.0 mi Calm Calm - N/A   Overcast
8:53 PM 34.0 °F - 26.1 °F 73% 30.10 in 10.0 mi Calm Calm - N/A   Overcast
9:53 PM 34.0 °F - 26.1 °F 73% 30.11 in 10.0 mi Calm Calm - N/A   Overcast
10:53 PM 34.0 °F - 26.1 °F 73% 30.11 in 10.0 mi Calm Calm - N/A   Overcast
11:53 PM 35.1 °F - 27.0 °F 72% 30.07 in 10.0 mi Calm Calm - N/A   Overcast